QFA050 YMML-YSSY

Flight info

Callsign QFA050
Flight time 1h 24m
Altitude 35000
Route ML H129 DOSEL Y59 RIVET
Aircraft A332/H-SDE3GHIJ2J3J5M1RVWXY/LB2D1

Departure

Time 2026-04-22 02:53
Airport Melbourne Airport (YMML)

Arrival

Time 2026-04-22 04:17
Airport Sydney Kingsford Smith International Airport (YSSY)
Time Latitude Longitude Altitude Speed Heading
2026-04-22 02:36 -37.66577 144.84486 366 ft 0 kts 352°
2026-04-22 02:42 -37.66577 144.84487 358 ft 2 kts 352°
2026-04-22 02:42 -37.66587 144.84488 363 ft 3 kts 352°
2026-04-22 02:42 -37.66605 144.84492 362 ft 3 kts 352°
2026-04-22 02:43 -37.66623 144.84495 364 ft 2 kts 352°
2026-04-22 02:43 -37.66641 144.84503 364 ft 0 kts 306°
2026-04-22 02:43 -37.66648 144.84523 360 ft 3 kts 265°
2026-04-22 02:43 -37.66647 144.84537 362 ft 0 kts 265°
2026-04-22 02:46 -37.66647 144.84536 362 ft 2 kts 265°
2026-04-22 02:46 -37.66661 144.84477 367 ft 13 kts 253°
2026-04-22 02:47 -37.66688 144.84312 377 ft 24 kts 261°
2026-04-22 02:47 -37.66716 144.84069 384 ft 27 kts 262°
2026-04-22 02:47 -37.66789 144.83974 386 ft 12 kts 178°
2026-04-22 02:47 -37.66913 144.84006 383 ft 27 kts 172°
2026-04-22 02:48 -37.67150 144.84050 376 ft 40 kts 171°
2026-04-22 02:48 -37.67427 144.84102 374 ft 39 kts 171°
2026-04-22 02:48 -37.67699 144.84154 363 ft 35 kts 172°
2026-04-22 02:48 -37.67847 144.84225 364 ft 10 kts 111°
2026-04-22 02:49 -37.67866 144.84323 363 ft 15 kts 110°
2026-04-22 02:49 -37.67965 144.84413 358 ft 22 kts 173°
2026-04-22 02:49 -37.68134 144.84445 351 ft 27 kts 171°
2026-04-22 02:49 -37.68338 144.84460 336 ft 29 kts 195°
2026-04-22 02:50 -37.68514 144.84328 332 ft 32 kts 228°
2026-04-22 02:50 -37.68546 144.84253 332 ft 0 kts 252°
2026-04-22 02:51 -37.68549 144.84238 332 ft 8 kts 255°
2026-04-22 02:51 -37.68542 144.84115 334 ft 13 kts 300°
2026-04-22 02:51 -37.68468 144.84078 336 ft 12 kts 354°
2026-04-22 02:51 -37.68445 144.84073 337 ft 0 kts 350°
2026-04-22 02:52 -37.68414 144.84066 338 ft 30 kts 350°
2026-04-22 02:52 -37.67899 144.83976 359 ft 118 kts 353°
2026-04-22 02:52 -37.66824 144.83783 392 ft 193 kts 353°
2026-04-22 02:52 -37.65467 144.83440 925 ft 225 kts 350°
2026-04-22 02:53 -37.63881 144.83170 2123 ft 227 kts 353°
2026-04-22 02:53 -37.62325 144.82906 3723 ft 227 kts 349°
2026-04-22 02:53 -37.60708 144.82599 4841 ft 243 kts 349°
2026-04-22 02:53 -37.58982 144.82443 5902 ft 254 kts
2026-04-22 02:54 -37.57303 144.83195 7037 ft 258 kts 26°
2026-04-22 02:54 -37.55715 144.84197 8139 ft 260 kts 28°
2026-04-22 02:54 -37.54073 144.85257 9207 ft 264 kts 27°
2026-04-22 02:54 -37.52445 144.86288 10259 ft 267 kts 26°
2026-04-22 02:55 -37.50762 144.87336 11153 ft 271 kts 26°
2026-04-22 02:55 -37.49053 144.88386 11997 ft 277 kts 25°
2026-04-22 02:55 -37.47306 144.89451 12860 ft 281 kts 25°
2026-04-22 02:55 -37.45529 144.90531 13674 ft 286 kts 25°
2026-04-22 02:56 -37.43746 144.91668 14443 ft 291 kts 32°
2026-04-22 02:56 -37.42331 144.93507 15119 ft 297 kts 53°
2026-04-22 02:56 -37.41167 144.95676 15808 ft 301 kts 56°
2026-04-22 02:56 -37.40010 144.97889 16473 ft 305 kts 54°
2026-04-22 02:57 -37.38818 145.00114 17136 ft 309 kts 54°
2026-04-22 02:57 -37.37588 145.02356 17774 ft 313 kts 54°
2026-04-22 02:57 -37.36336 145.04608 18441 ft 316 kts 53°
2026-04-22 02:57 -37.35062 145.06878 18981 ft 319 kts 53°
2026-04-22 02:58 -37.33772 145.09168 19507 ft 322 kts 53°
2026-04-22 02:58 -37.32470 145.11470 20054 ft 324 kts 53°
2026-04-22 02:58 -37.31157 145.13791 20567 ft 327 kts 53°
2026-04-22 02:58 -37.29830 145.16132 21085 ft 329 kts 53°
2026-04-22 02:59 -37.28496 145.18482 21590 ft 332 kts 53°
2026-04-22 02:59 -37.27166 145.20823 22066 ft 334 kts 53°
2026-04-22 02:59 -37.25810 145.23209 22513 ft 338 kts 53°
2026-04-22 02:59 -37.24422 145.25648 22731 ft 352 kts 53°
2026-04-22 03:00 -37.22959 145.28215 22945 ft 369 kts 53°
2026-04-22 03:00 -37.21435 145.30889 23217 ft 384 kts 53°
2026-04-22 03:00 -37.19854 145.33662 23496 ft 398 kts 53°
2026-04-22 03:00 -37.18217 145.36530 23924 ft 408 kts 53°
2026-04-22 03:01 -37.16552 145.39448 24379 ft 413 kts 53°
2026-04-22 03:01 -37.14859 145.42399 24842 ft 418 kts 53°
2026-04-22 03:01 -37.13173 145.45332 25293 ft 423 kts 53°
2026-04-22 03:01 -37.11488 145.48381 25746 ft 427 kts 55°
2026-04-22 03:02 -37.09842 145.51497 26224 ft 431 kts 55°
2026-04-22 03:02 -37.08186 145.54640 26703 ft 434 kts 55°
2026-04-22 03:02 -37.06509 145.57804 27183 ft 437 kts 55°
2026-04-22 03:02 -37.04817 145.60985 27599 ft 441 kts 55°
2026-04-22 03:03 -37.03108 145.64188 28034 ft 445 kts 55°
2026-04-22 03:03 -37.01380 145.67420 28453 ft 448 kts 55°
2026-04-22 03:03 -36.99640 145.70667 28854 ft 453 kts 55°
2026-04-22 03:03 -36.97875 145.73958 29262 ft 456 kts 54°
2026-04-22 03:04 -36.96096 145.77271 29671 ft 460 kts 54°
2026-04-22 03:04 -36.94307 145.80599 30121 ft 462 kts 54°
2026-04-22 03:04 -36.92506 145.83946 30551 ft 464 kts 54°
2026-04-22 03:04 -36.90718 145.87266 30894 ft 467 kts 54°
2026-04-22 03:05 -36.88895 145.90647 31220 ft 470 kts 54°
2026-04-22 03:05 -36.87061 145.94044 31553 ft 473 kts 54°
2026-04-22 03:05 -36.85214 145.97462 31899 ft 475 kts 54°
2026-04-22 03:05 -36.83353 146.00903 32245 ft 478 kts 54°
2026-04-22 03:06 -36.81490 146.04345 32629 ft 478 kts 54°
2026-04-22 03:06 -36.79624 146.07787 33068 ft 478 kts 54°
2026-04-22 03:06 -36.77760 146.11223 33504 ft 478 kts 54°
2026-04-22 03:06 -36.75919 146.14614 33904 ft 478 kts 54°
2026-04-22 03:07 -36.74055 146.18043 34331 ft 478 kts 54°
2026-04-22 03:07 -36.72192 146.21466 34706 ft 477 kts 54°
2026-04-22 03:07 -36.70327 146.24889 34972 ft 479 kts 54°
2026-04-22 03:08 -36.66519 146.31866 35046 ft 494 kts 54°
2026-04-22 03:08 -36.62582 146.39068 35033 ft 510 kts 55°
2026-04-22 03:09 -36.58566 146.46398 35035 ft 513 kts 54°
2026-04-22 03:09 -36.54543 146.53727 35032 ft 513 kts 54°
2026-04-22 03:10 -36.50542 146.60999 35030 ft 513 kts 54°
2026-04-22 03:10 -36.46495 146.68339 35033 ft 514 kts 54°
2026-04-22 03:11 -36.42451 146.75656 35028 ft 514 kts 54°
2026-04-22 03:11 -36.38393 146.82984 35029 ft 514 kts 54°
2026-04-22 03:12 -36.34325 146.90313 35029 ft 516 kts 54°
2026-04-22 03:12 -36.28232 147.01264 35024 ft 516 kts 54°
2026-04-22 03:13 -36.24149 147.08580 35015 ft 516 kts 54°
2026-04-22 03:13 -36.20054 147.15904 35022 ft 518 kts 55°
2026-04-22 03:14 -36.15972 147.23189 35022 ft 517 kts 55°
2026-04-22 03:14 -36.11859 147.30514 35021 ft 517 kts 55°
2026-04-22 03:15 -36.07726 147.37858 35021 ft 519 kts 54°
2026-04-22 03:15 -36.03616 147.45146 35021 ft 520 kts 55°
2026-04-22 03:16 -35.99479 147.52468 35016 ft 519 kts 55°
2026-04-22 03:16 -35.95335 147.59785 35017 ft 520 kts 55°
2026-04-22 03:17 -35.91183 147.67099 35037 ft 520 kts 55°
2026-04-22 03:17 -35.87113 147.74257 35010 ft 496 kts 55°
2026-04-22 03:18 -35.85182 147.77647 34933 ft 482 kts 55°
2026-04-22 03:18 -35.83280 147.80982 34835 ft 470 kts 55°
2026-04-22 03:18 -35.81419 147.84243 34706 ft 460 kts 55°
2026-04-22 03:18 -35.79599 147.87429 34555 ft 450 kts 55°
2026-04-22 03:19 -35.77811 147.90556 34387 ft 442 kts 55°
2026-04-22 03:19 -35.76056 147.93623 34167 ft 434 kts 55°
2026-04-22 03:19 -35.74328 147.96641 33910 ft 427 kts 55°
2026-04-22 03:19 -35.72629 147.99604 33674 ft 421 kts 55°
2026-04-22 03:20 -35.70947 148.02535 33397 ft 416 kts 55°
2026-04-22 03:20 -35.69291 148.05419 33122 ft 410 kts 55°
2026-04-22 03:20 -35.67652 148.08273 32855 ft 405 kts 55°
2026-04-22 03:20 -35.66032 148.11089 32575 ft 401 kts 55°
2026-04-22 03:21 -35.64431 148.13870 32297 ft 396 kts 55°
2026-04-22 03:21 -35.62845 148.16624 32011 ft 392 kts 55°
2026-04-22 03:21 -35.61297 148.19309 31721 ft 388 kts 55°
2026-04-22 03:21 -35.59737 148.22012 31453 ft 385 kts 56°
2026-04-22 03:22 -35.58199 148.24675 31176 ft 381 kts 56°
2026-04-22 03:22 -35.56669 148.27323 30895 ft 378 kts 56°
2026-04-22 03:22 -35.55155 148.29940 30595 ft 375 kts 56°
2026-04-22 03:22 -35.53650 148.32541 30298 ft 371 kts 56°
2026-04-22 03:23 -35.52156 148.35121 29957 ft 369 kts 56°
2026-04-22 03:23 -35.50670 148.37685 29622 ft 366 kts 56°
2026-04-22 03:23 -35.49219 148.40187 29294 ft 363 kts 56°
2026-04-22 03:23 -35.47761 148.42699 28975 ft 360 kts 56°
2026-04-22 03:24 -35.46313 148.45192 28663 ft 357 kts 56°
2026-04-22 03:24 -35.44872 148.47672 28340 ft 355 kts 56°
2026-04-22 03:24 -35.43444 148.50126 28044 ft 352 kts 56°
2026-04-22 03:24 -35.42023 148.52567 27735 ft 350 kts 56°
2026-04-22 03:25 -35.40616 148.54983 27435 ft 348 kts 56°
2026-04-22 03:25 -35.39213 148.57390 27138 ft 345 kts 57°
2026-04-22 03:25 -35.37834 148.59753 26833 ft 343 kts 57°
2026-04-22 03:25 -35.36452 148.62122 26543 ft 341 kts 57°
2026-04-22 03:26 -35.35074 148.64481 26254 ft 339 kts 57°
2026-04-22 03:26 -35.33710 148.66814 25972 ft 336 kts 57°
2026-04-22 03:26 -35.32349 148.69142 25694 ft 334 kts 57°
2026-04-22 03:26 -35.31000 148.71446 25424 ft 332 kts 57°
2026-04-22 03:27 -35.30110 148.72966 25231 ft 330 kts 57°
2026-04-22 03:27 -35.28759 148.75271 24944 ft 328 kts 57°
2026-04-22 03:27 -35.27452 148.77501 24703 ft 326 kts 57°
2026-04-22 03:27 -35.26126 148.79760 24440 ft 324 kts 57°
2026-04-22 03:28 -35.24814 148.81997 24162 ft 322 kts 57°
2026-04-22 03:28 -35.23509 148.84218 23883 ft 320 kts 57°
2026-04-22 03:28 -35.22214 148.86422 23581 ft 318 kts 57°
2026-04-22 03:28 -35.20925 148.88613 23276 ft 316 kts 57°
2026-04-22 03:29 -35.19642 148.90794 22970 ft 314 kts 57°
2026-04-22 03:29 -35.18374 148.92946 22749 ft 309 kts 57°
2026-04-22 03:29 -35.17131 148.95056 22548 ft 304 kts 57°
2026-04-22 03:29 -35.15918 148.97112 22347 ft 300 kts 57°
2026-04-22 03:30 -35.14707 148.99165 22104 ft 296 kts 57°
2026-04-22 03:30 -35.13509 149.01194 21872 ft 292 kts 57°
2026-04-22 03:30 -35.12328 149.03195 21640 ft 289 kts 57°
2026-04-22 03:30 -35.11155 149.05179 21405 ft 287 kts 58°
2026-04-22 03:31 -35.09991 149.07150 21174 ft 284 kts 58°
2026-04-22 03:31 -35.08837 149.09100 20931 ft 282 kts 58°
2026-04-22 03:31 -35.07692 149.11034 20687 ft 280 kts 58°
2026-04-22 03:31 -35.06555 149.12954 20448 ft 278 kts 58°
2026-04-22 03:32 -35.05427 149.14858 20204 ft 276 kts 58°
2026-04-22 03:32 -35.04308 149.16747 19975 ft 274 kts 58°
2026-04-22 03:32 -35.03196 149.18621 19742 ft 272 kts 58°
2026-04-22 03:32 -35.02103 149.20462 19516 ft 270 kts 58°
2026-04-22 03:33 -35.01005 149.22312 19285 ft 268 kts 58°
2026-04-22 03:33 -34.99914 149.24149 19047 ft 266 kts 58°
2026-04-22 03:33 -34.98831 149.25971 18823 ft 264 kts 58°
2026-04-22 03:33 -34.97757 149.27776 18599 ft 262 kts 58°
2026-04-22 03:34 -34.96688 149.29570 18315 ft 260 kts 58°
2026-04-22 03:34 -34.95624 149.31354 18060 ft 259 kts 58°
2026-04-22 03:34 -34.94570 149.33122 17795 ft 257 kts 58°
2026-04-22 03:34 -34.93521 149.34881 17526 ft 255 kts 58°
2026-04-22 03:35 -34.92477 149.36633 17266 ft 254 kts 58°
2026-04-22 03:35 -34.91441 149.38368 17009 ft 252 kts 58°
2026-04-22 03:35 -34.90424 149.40073 16764 ft 251 kts 58°
2026-04-22 03:35 -34.89403 149.41783 16515 ft 249 kts 58°
2026-04-22 03:36 -34.88385 149.43487 16276 ft 247 kts 58°
2026-04-22 03:36 -34.87379 149.45171 16030 ft 246 kts 58°
2026-04-22 03:36 -34.86372 149.46855 15781 ft 244 kts 58°
2026-04-22 03:36 -34.85375 149.48522 15539 ft 243 kts 58°
2026-04-22 03:37 -34.84384 149.50177 15307 ft 241 kts 58°
2026-04-22 03:37 -34.83399 149.51823 15065 ft 239 kts 58°
2026-04-22 03:37 -34.82420 149.53457 14828 ft 238 kts 58°
2026-04-22 03:37 -34.81450 149.55077 14602 ft 237 kts 58°
2026-04-22 03:38 -34.80493 149.56672 14365 ft 235 kts 58°
2026-04-22 03:38 -34.79530 149.58278 14116 ft 234 kts 58°
2026-04-22 03:38 -34.78573 149.59872 13873 ft 233 kts 58°
2026-04-22 03:38 -34.77621 149.61459 13617 ft 232 kts 58°
2026-04-22 03:39 -34.76672 149.63039 13349 ft 231 kts 58°
2026-04-22 03:39 -34.75726 149.64614 13085 ft 230 kts 58°
2026-04-22 03:39 -34.74782 149.66184 12836 ft 229 kts 58°
2026-04-22 03:39 -34.73843 149.67746 12568 ft 229 kts 57°
2026-04-22 03:40 -34.72906 149.69303 12313 ft 228 kts 57°
2026-04-22 03:40 -34.71970 149.70857 12054 ft 227 kts 57°
2026-04-22 03:40 -34.71037 149.72407 11815 ft 227 kts 57°
2026-04-22 03:40 -34.70107 149.73951 11574 ft 226 kts 57°
2026-04-22 03:41 -34.69178 149.75493 11325 ft 226 kts 57°
2026-04-22 03:41 -34.68250 149.77031 11097 ft 225 kts 57°
2026-04-22 03:41 -34.67322 149.78569 10881 ft 225 kts 57°
2026-04-22 03:41 -34.66400 149.80098 10636 ft 224 kts 57°
2026-04-22 03:42 -34.65480 149.81620 10404 ft 223 kts 57°
2026-04-22 03:42 -34.64562 149.83140 10177 ft 223 kts 56°
2026-04-22 03:42 -34.63645 149.84659 10102 ft 228 kts 57°
2026-04-22 03:42 -34.62688 149.86245 10251 ft 243 kts 57°
2026-04-22 03:43 -34.61675 149.87923 10441 ft 244 kts 56°
2026-04-22 03:43 -34.60695 149.89535 10564 ft 229 kts 57°
2026-04-22 03:43 -34.59776 149.91044 10583 ft 216 kts 57°
2026-04-22 03:43 -34.58907 149.92475 10533 ft 206 kts 57°
2026-04-22 03:44 -34.58071 149.93854 10430 ft 200 kts 57°
2026-04-22 03:44 -34.57257 149.95199 10278 ft 196 kts 57°
2026-04-22 03:44 -34.56457 149.96521 10091 ft 193 kts 57°
2026-04-22 03:44 -34.55662 149.97834 9868 ft 192 kts 57°
2026-04-22 03:45 -34.54876 149.99132 9634 ft 190 kts 57°
2026-04-22 03:45 -34.54102 150.00410 9431 ft 190 kts 57°
2026-04-22 03:45 -34.53320 150.01698 9217 ft 189 kts 57°
2026-04-22 03:45 -34.52542 150.02979 9008 ft 188 kts 57°
2026-04-22 03:46 -34.51770 150.04250 8802 ft 187 kts 57°
2026-04-22 03:46 -34.50991 150.05533 8792 ft 192 kts 57°
2026-04-22 03:46 -34.50142 150.06939 9028 ft 227 kts 56°
2026-04-22 03:46 -34.49121 150.08632 9040 ft 266 kts 56°
2026-04-22 03:47 -34.47990 150.10492 9002 ft 279 kts 56°
2026-04-22 03:47 -34.46829 150.12389 9003 ft 281 kts 56°
2026-04-22 03:47 -34.45665 150.14292 9003 ft 281 kts 56°
2026-04-22 03:47 -34.44501 150.16197 9005 ft 281 kts 56°
2026-04-22 03:48 -34.43337 150.18105 9005 ft 281 kts 56°
2026-04-22 03:48 -34.42187 150.19987 9004 ft 281 kts 56°
2026-04-22 03:48 -34.41020 150.21894 9001 ft 281 kts 56°
2026-04-22 03:48 -34.39857 150.23797 9002 ft 281 kts 56°
2026-04-22 03:49 -34.38694 150.25699 9004 ft 281 kts 56°
2026-04-22 03:49 -34.37532 150.27601 9005 ft 281 kts 56°
2026-04-22 03:49 -34.36364 150.29509 9003 ft 282 kts 56°
2026-04-22 03:49 -34.35190 150.31426 9003 ft 282 kts 56°
2026-04-22 03:50 -34.34038 150.33306 9000 ft 282 kts 56°
2026-04-22 03:50 -34.32871 150.35211 8998 ft 282 kts 56°
2026-04-22 03:50 -34.31702 150.37118 8996 ft 282 kts 56°
2026-04-22 03:50 -34.30535 150.39021 8997 ft 282 kts 56°
2026-04-22 03:51 -34.29364 150.40929 8997 ft 282 kts 56°
2026-04-22 03:51 -34.28208 150.42847 8993 ft 281 kts 59°
2026-04-22 03:51 -34.27221 150.44883 8997 ft 280 kts 63°
2026-04-22 03:51 -34.26293 150.46957 8994 ft 280 kts 64°
2026-04-22 03:52 -34.25373 150.49034 8991 ft 280 kts 65°
2026-04-22 03:52 -34.24457 150.51097 8996 ft 280 kts 64°
2026-04-22 03:52 -34.23532 150.53174 8998 ft 280 kts 64°
2026-04-22 03:52 -34.22607 150.55244 8989 ft 280 kts 64°
2026-04-22 03:53 -34.21688 150.57297 8993 ft 280 kts 65°
2026-04-22 03:53 -34.20762 150.59366 8988 ft 280 kts 64°
2026-04-22 03:53 -34.19831 150.61439 8994 ft 280 kts 64°
2026-04-22 03:53 -34.18902 150.63511 8680 ft 282 kts 64°
2026-04-22 03:54 -34.17979 150.65565 8466 ft 274 kts 64°
2026-04-22 03:54 -34.17085 150.67546 8351 ft 264 kts 64°
2026-04-22 03:54 -34.16225 150.69454 8207 ft 254 kts 64°
2026-04-22 03:54 -34.15394 150.71299 8098 ft 245 kts 64°
2026-04-22 03:55 -34.14595 150.73073 7993 ft 237 kts 64°
2026-04-22 03:55 -34.13821 150.74791 7866 ft 229 kts 64°
2026-04-22 03:55 -34.13066 150.76469 7656 ft 226 kts 65°
2026-04-22 03:55 -34.12315 150.78138 7419 ft 226 kts 66°
2026-04-22 03:56 -34.11568 150.79797 7183 ft 224 kts 64°
2026-04-22 03:56 -34.10829 150.81436 6943 ft 224 kts 65°
2026-04-22 03:56 -34.10082 150.83094 6706 ft 224 kts 65°
2026-04-22 03:56 -34.09341 150.84742 6447 ft 223 kts 65°
2026-04-22 03:57 -34.08598 150.86392 6188 ft 223 kts 65°
2026-04-22 03:57 -34.07858 150.88034 6026 ft 223 kts 64°
2026-04-22 03:57 -34.07128 150.89650 6005 ft 214 kts 65°
2026-04-22 03:57 -34.06449 150.91151 5993 ft 201 kts 66°
2026-04-22 03:58 -34.05801 150.92585 5990 ft 189 kts 66°
2026-04-22 03:58 -34.05183 150.93957 6015 ft 184 kts 66°
2026-04-22 03:58 -34.04576 150.95308 5997 ft 183 kts 65°
2026-04-22 03:58 -34.03969 150.96659 5997 ft 183 kts 66°
2026-04-22 03:59 -34.03362 150.98007 5999 ft 183 kts 66°
2026-04-22 03:59 -34.02728 150.99351 6004 ft 185 kts 57°
2026-04-22 03:59 -34.01763 151.00391 6019 ft 188 kts 37°
2026-04-22 03:59 -34.00632 151.01217 6022 ft 191 kts 33°
2026-04-22 04:00 -33.99551 151.02123 6002 ft 187 kts 51°
2026-04-22 04:00 -33.98780 151.03356 6020 ft 184 kts 61°
2026-04-22 04:00 -33.98087 151.04670 6027 ft 184 kts 63°
2026-04-22 04:00 -33.97413 151.05988 6011 ft 186 kts 63°
2026-04-22 04:01 -33.96725 151.07322 6018 ft 188 kts 62°
2026-04-22 04:01 -33.96042 151.08660 6015 ft 188 kts 62°
2026-04-22 04:01 -33.95372 151.09989 6014 ft 187 kts 63°
2026-04-22 04:01 -33.94686 151.11329 6011 ft 187 kts 63°
2026-04-22 04:02 -33.94010 151.12670 6011 ft 187 kts 63°
2026-04-22 04:02 -33.93338 151.14010 6017 ft 188 kts 63°
2026-04-22 04:02 -33.92654 151.15351 6013 ft 188 kts 62°
2026-04-22 04:02 -33.91976 151.16692 6020 ft 187 kts 63°
2026-04-22 04:03 -33.91291 151.18033 6012 ft 188 kts 62°
2026-04-22 04:03 -33.90586 151.19364 6011 ft 189 kts 57°
2026-04-22 04:03 -33.89606 151.20413 6019 ft 193 kts 37°
2026-04-22 04:03 -33.88452 151.21256 6016 ft 195 kts 33°
2026-04-22 04:04 -33.87277 151.22062 6008 ft 194 kts 32°
2026-04-22 04:04 -33.86097 151.22867 6014 ft 195 kts 32°
2026-04-22 04:04 -33.84920 151.23673 6010 ft 194 kts 33°
2026-04-22 04:04 -33.83742 151.24476 6009 ft 195 kts 32°
2026-04-22 04:05 -33.82575 151.25269 5991 ft 195 kts 32°
2026-04-22 04:05 -33.81346 151.25983 5730 ft 199 kts 15°
2026-04-22 04:05 -33.79958 151.25944 5509 ft 200 kts 348°
2026-04-22 04:05 -33.78630 151.25533 5364 ft 196 kts 343°
2026-04-22 04:06 -33.77319 151.25070 5112 ft 198 kts 342°
2026-04-22 04:06 -33.76007 151.24601 4939 ft 195 kts 342°
2026-04-22 04:06 -33.74714 151.24138 4709 ft 194 kts 342°
2026-04-22 04:06 -33.73398 151.23675 4445 ft 197 kts 342°
2026-04-22 04:07 -33.72095 151.23215 4277 ft 194 kts 342°
2026-04-22 04:07 -33.70917 151.22476 4016 ft 191 kts 309°
2026-04-22 04:07 -33.70242 151.21161 3997 ft 177 kts 288°
2026-04-22 04:07 -33.69818 151.19813 3988 ft 170 kts 282°
2026-04-22 04:08 -33.69422 151.18467 3986 ft 170 kts 283°
2026-04-22 04:08 -33.69034 151.17120 3990 ft 170 kts 283°
2026-04-22 04:08 -33.68852 151.15777 3976 ft 162 kts 256°
2026-04-22 04:08 -33.69227 151.14541 3995 ft 156 kts 237°
2026-04-22 04:09 -33.69768 151.13405 3986 ft 154 kts 231°
2026-04-22 04:09 -33.70566 151.12679 3969 ft 145 kts 185°
2026-04-22 04:09 -33.71547 151.12817 3995 ft 142 kts 167°
2026-04-22 04:09 -33.72470 151.13077 3970 ft 129 kts 167°
2026-04-22 04:10 -33.73310 151.13299 3987 ft 121 kts 167°
2026-04-22 04:10 -33.74134 151.13518 3992 ft 122 kts 167°
2026-04-22 04:10 -33.74965 151.13738 3992 ft 123 kts 168°
2026-04-22 04:10 -33.75806 151.13957 3974 ft 124 kts 168°
2026-04-22 04:11 -33.76643 151.14168 3827 ft 123 kts 168°
2026-04-22 04:11 -33.77198 151.14308 3709 ft 123 kts 168°
2026-04-22 04:11 -33.78026 151.14519 3522 ft 121 kts 167°
2026-04-22 04:11 -33.78842 151.14726 3346 ft 118 kts 168°
2026-04-22 04:12 -33.79645 151.14931 3182 ft 118 kts 168°
2026-04-22 04:12 -33.80459 151.15138 3024 ft 119 kts 167°
2026-04-22 04:12 -33.81268 151.15345 2876 ft 118 kts 167°
2026-04-22 04:12 -33.82073 151.15550 2716 ft 119 kts 168°
2026-04-22 04:13 -33.83146 151.15823 2511 ft 118 kts 167°
2026-04-22 04:13 -33.83687 151.15961 2392 ft 117 kts 168°
2026-04-22 04:13 -33.84481 151.16164 2237 ft 116 kts 167°
2026-04-22 04:13 -33.85264 151.16364 2086 ft 116 kts 167°
2026-04-22 04:14 -33.86057 151.16566 1918 ft 117 kts 168°
2026-04-22 04:14 -33.86868 151.16773 1763 ft 119 kts 168°
2026-04-22 04:14 -33.87664 151.16976 1597 ft 116 kts 168°
2026-04-22 04:14 -33.88457 151.17179 1452 ft 118 kts 167°
2026-04-22 04:15 -33.89251 151.17382 1295 ft 118 kts 168°
2026-04-22 04:15 -33.90047 151.17585 1129 ft 117 kts 168°
2026-04-22 04:15 -33.90852 151.17791 974 ft 117 kts 169°
2026-04-22 04:15 -33.91645 151.17993 825 ft 120 kts 168°
2026-04-22 04:16 -33.92453 151.18200 659 ft 116 kts 169°
2026-04-22 04:16 -33.94095 151.18590 362 ft 121 kts 167°
2026-04-22 04:16 -33.94899 151.18820 111 ft 117 kts 167°
2026-04-22 04:17 -33.95647 151.19008 28 ft 86 kts 168°
2026-04-22 04:17 -33.96124 151.19131 32 ft 61 kts 167°
2026-04-22 04:17 -33.96379 151.19199 29 ft 27 kts 167°
2026-04-22 04:17 -33.96535 151.19224 27 ft 21 kts 181°
2026-04-22 04:18 -33.96683 151.19185 22 ft 22 kts 203°
2026-04-22 04:18 -33.96715 151.19129 24 ft 5 kts 272°
2026-04-22 04:18 -33.96688 151.19079 23 ft 10 kts 320°
2026-04-22 04:18 -33.96651 151.19067 25 ft 0 kts 347°
2026-04-22 04:22 -33.96633 151.19062 25 ft 7 kts 347°
2026-04-22 04:22 -33.96546 151.19041 24 ft 18 kts 348°
2026-04-22 04:22 -33.96393 151.19001 27 ft 26 kts 348°
2026-04-22 04:23 -33.96191 151.18949 30 ft 34 kts 348°
2026-04-22 04:23 -33.95936 151.18883 31 ft 41 kts 348°
2026-04-22 04:23 -33.95634 151.18805 29 ft 48 kts 348°
2026-04-22 04:23 -33.95368 151.18737 28 ft 33 kts 348°
2026-04-22 04:24 -33.95176 151.18611 30 ft 29 kts 318°
2026-04-22 04:24 -33.95121 151.18424 30 ft 27 kts 258°
2026-04-22 04:24 -33.95165 151.18179 30 ft 33 kts 257°
2026-04-22 04:24 -33.95141 151.17963 29 ft 22 kts 333°
2026-04-22 04:25 -33.94963 151.17908 26 ft 32 kts 348°
2026-04-22 04:25 -33.94725 151.17848 28 ft 23 kts 348°
2026-04-22 04:25 -33.94567 151.17807 28 ft 21 kts 347°
2026-04-22 04:25 -33.94472 151.17780 27 ft 5 kts 346°
2026-04-22 04:26 -33.94375 151.17750 27 ft 26 kts 345°
2026-04-22 04:26 -33.94149 151.17680 28 ft 40 kts 346°
2026-04-22 04:26 -33.93971 151.17630 26 ft 19 kts 348°
2026-04-22 04:26 -33.93903 151.17587 25 ft 15 kts 305°
2026-04-22 04:27 -33.93899 151.17557 27 ft 0 kts 263°
2026-04-22 04:29 -33.93901 151.17538 27 ft 10 kts 261°
2026-04-22 04:29 -33.93937 151.17381 24 ft 28 kts 253°
2026-04-22 04:29 -33.93923 151.17217 21 ft 15 kts 323°
2026-04-22 04:29 -33.93787 151.17180 19 ft 28 kts 350°
2026-04-22 04:30 -33.93543 151.17115 27 ft 38 kts 347°
2026-04-22 04:30 -33.93319 151.17032 27 ft 33 kts 325°
2026-04-22 04:30 -33.93191 151.16948 28 ft 0 kts 346°
2026-04-22 04:30 -33.93125 151.16928 29 ft 15 kts 343°
2026-04-22 04:31 -33.93088 151.16860 29 ft 15 kts 277°
2026-04-22 04:31 -33.93097 151.16800 27 ft 0 kts 253°